Regional Weather Roundup
Issued by NWS Pendleton, OR

Home | Current Version | Previous Version | Text Only | Print | Product List | Glossary On
Versions: 1 2 3 4 5 6 7 8 9 10 11 12 13 14 15 16 17 18 19 20 21 22 23 24 25 26 27 28 29 30 31 32 33 34 35 36 37 38 39 40 41 42 43 44 45 46 47 48 49 50
000
ASUS46 KPDT 230525
RWRPDT
PENDLETON REGIONAL WEATHER ROUNDUP
NATIONAL WEATHER SERVICE PENDLETON OREGON
900 PM PST WED FEB 22 2017

NOTE: FAIR INDICATES FEW OR NO CLOUDS BELOW 12,000 FEET WITH NO
SIGNIFICANT WEATHER AND/OR OBSTRUCTIONS TO VISIBILITY.

# INDICATES UNOFFICIAL STATION AND DATA

WAZ520-230610-
EAST SLOPES OF WASHINGTON CASCADES

CITY            SKY/WX      TMP DP  RH  WIND    PRES   REMARKS
#CLE ELUM HS    N/A         28  22  78  CALM    30.04R
#CLE ELUM LAKE  N/A         26  22  85  CALM    30.13R
#GLENWOOD       N/A         24  21  88  CALM    30.15R
#MANASTASH CYN  N/A         24  17  74  CALM    30.02R
#NELSON 3SW     N/A         23  20  88  CALM    30.37R
#NILE           N/A         24  21  88  CALM    29.40R
#TEANAWAY 4NE   N/A         27  22  81  CALM    N/A
#TROUT LAKE 1NE N/A         30  26  85  CALM    30.14R
#TROUT LAKE 1E  N/A         29  26  88  CALM    30.10R
$$

WAZ521-230610-
SIMCOE HIGHLANDS

CITY            SKY/WX      TMP DP  RH  WIND    PRES   REMARKS
#BICKLETON HS   N/A         29  20  69  NW5     29.67R
#CENTERVILLE 1SWN/A         31  26  81  CALM    30.11S
#GOLDENDALE 1NE N/A         28  20  71  NE2     N/A
#GOLDENDALE 4W  N/A         31  13  47  CALM    30.10R
#GOODNOE HILLS  N/A         35  24  64  W8      29.98S
#LYLE 6NE       N/A         34  30  85  W7      30.11R
#PITT 4SE       N/A         28  26  92  W6      30.17R
$$

WAZ026-230610-
KITTITAS VALLEY

CITY            SKY/WX      TMP DP  RH  WIND    PRES   REMARKS
ELLENSBURG AP   PTCLDY      32  22  66  N13     30.07R WCI 22
#ELLENSBURG CWU N/A         31  25  78  NW7     30.06S
#ELLENSBURG 3NE N/A         30  24  78  N8      28.14S
#ELLENSBURG 1E  N/A         31  N/A N/A CALM    N/A
#KITTITAS 4N    N/A         29  22  75  E1      30.08R
#KITTITAS 3S    N/A         27  21  78  CALM    30.13R
#THORP 6N       N/A         30  25  81  NW10    30.15S
$$

WAZ027-230610-
YAKIMA VALLEY

CITY            SKY/WX      TMP DP  RH  WIND    PRES   REMARKS
SUNNYSIDE AP    PTCLDY      28  25  88  E3      30.11R
YAKIMA AIRPORT  PTCLDY      34  24  66  SW7     30.10R
YAKIMA-VAGABOND PTCLDY      29  23  78  NE3     30.07R
#DONALD 2NE     N/A         35   9  33  N3      28.94R
#GRANDVIEW      N/A         31  24  75  CALM    30.15R
#MABTON         N/A         34  28  78  S2      30.10R
#MOXEE 2E       N/A         31   0  26  CALM    30.08R
#NACHES 2SW     N/A         33  25  72  W8      30.06S
#TERRACE HTS    N/A         32  25  75  CALM    30.10R
#TOPPENISH      N/A         34  27  75  CALM    30.05R
#WEST VALLEY    N/A         35  24  64  CALM    30.12R
#W YAKIMA       N/A         35  24  64  CALM    30.13R
#WHITE SWAN 5E  N/A         29  26  88  CALM    30.14S
#WILEY CITY 3W  N/A         30  19  63  CALM    30.05R
$$

WAZ028-230610-
LOWER COLUMBIA BASIN...WASHINGTON

CITY            SKY/WX      TMP DP  RH  WIND    PRES   REMARKS
PASCO           MOCLDY      32  28  85  N3      30.12S
PROSSER AWOS    N/A         32  32  100 CALM    30.14R
RICHLAND AWOS   PTCLDY      34  32  92  CALM    30.12R
#BENTON CITY    N/A         31  27  85  CALM    30.04R
#CONNELL 5N     N/A         29  27  92  CALM    30.13R
#CONNELL 5NW    N/A         29  27  92  CALM    30.09R
#ELTOPIA 6NW    N/A         33  30  89  CALM    29.05S
#KAHLOTUS       N/A         33  31  92  CALM    30.11S
#KENNEWICK 3S   N/A         36  29  75  CALM    30.13R
#PATERSON       N/A         37  32  82  CALM    30.10R
#SAGEMOOR 2W    N/A         31  28  88  W1      29.97R
#TOUCHET 2S     N/A         33  30  89  SW1     30.11R
#WEST PASCO     N/A         33  28  82  CALM    30.12R
$$

WAZ029-230610-
FOOTHILLS OF THE BLUES...WASHINGTON

CITY            SKY/WX      TMP DP  RH  WIND    PRES   REMARKS
WALLA WALLA AP  CLOUDY      34  30  85  E5      30.08R
#CLYDE 6NW      N/A         26  24  92  CALM    30.11R
#DAYTON SCHOOL  N/A         31  22  69  CALM    30.08S
#LOWDEN 2SE     N/A         34  31  89  CALM    30.07R
#PLEASANT VIEW 1N/A         33  29  85  CALM    30.15S
#PRESCOTT       N/A         30  28  92  CALM    30.10S
#WHITMAN COLLEGEN/A         37  31  79  W1      30.16R
#WAITSBURG 5S   N/A         32  27  82  CALM    30.20S
#WALLA WALLA 5E N/A         35  32  89  NE2     N/A
#WALLA WALLA U  N/A         37  33  85  CALM    30.11S
#WHITMAN MISSIONN/A         35  32  89  CALM    30.13R
$$

WAZ030-230610-
BLUE MOUNTAINS...WASHINGTON

CITY            SKY/WX      TMP DP  RH  WIND    PRES   REMARKS
#DIXIE 5SE      N/A         32  28  85  SW8     29.94R
#SKI BLUEWOOD   N/A         23  20  88  N6      29.93R
$$

ORZ009-041-WAZ024-230610-
COLUMBIA RIVER GORGE

CITY            SKY/WX      TMP DP  RH  WIND    PRES   REMARKS
HOOD RIVER AP   PTCLDY      34  30  85  CALM    30.16R
THE DALLES AP   PTCLDY      39  32  76  NW12    30.14R WCI 32
#ARLINGTON AIRPON/A         38  30  73  W3      30.13R
#ARLINGTON HS   N/A         38  28  67  NW2     30.03R
#CELILO DOT     N/A         41  25  53  SW8     N/A
#LYLE           N/A         40  34  79  W7      30.17R
#MOSIER 1S      N/A         36  22  56  CALM    30.12R
#MURDOCK        N/A         40  33  76  N10     30.14R
#RUFUS DOT      N/A         42  30  62  W2      N/A
#SMITHVILLE     N/A         40  34  79  N14     30.09R WCI 32

$$

ORZ510-230610-
NORTH CENTRAL OREGON

CITY            SKY/WX      TMP DP  RH  WIND    PRES   REMARKS
#CHENOWITH 1W   N/A         32  29  89  NW24    N/A    WCI 19
#COW CYN RST AREN/A         29  21  72  W2      N/A
#DUFUR 9E       N/A         32  24  72  W3      30.19R
#GRASS VALLEY 1SN/A         31  24  75  NW2     30.19S
#KENT DOT       N/A         29  17  60  N3      N/A
#MAUPIN SCHOOL  N/A         36  26  67  CALM    30.15R
#MORO SCHOOL    N/A         34  30  85  W7      30.14R
#SHANIKO 5WSW   N/A         28  13  53  N3      N/A
#SHANIKO 4NW    N/A         27  20  74  W3      30.00S
#TYGH VALLEY 2NEN/A         33  25  72  CALM    30.13R
#WAPANITIA AIRPON/A         32  25  75  W1      30.14S
#WASCO DOT      N/A         30  25  81  CALM    N/A
#WASCO 5NE      N/A         32  27  82  W7      30.13R
$$

ORZ511-230610-
CENTRAL OREGON

CITY            SKY/WX      TMP DP  RH  WIND    PRES   REMARKS
BEND AIRPORT    PTCLDY      28  23  81  CALM    30.04R
MADRAS AIRPORT  PTCLDY      30  23  75  NW8     30.08S
PRINEVILLE AP   PTCLDY      30  21  69  NW8     30.04R
REDMOND AIRPORT PTCLDY      29  22  75  W5      30.05R
#ASHWOOD SCHOOL N/A         30  23  75  CALM    30.02R
#BEND 1SW       N/A         26  23  88  CALM    N/A
#BEND-AWBREY    N/A         27  22  81  CALM    30.16R
#BEND-KIM LN    N/A         25  21  84  CALM    30.11R
#CULVER         N/A         28  22  78  NE1     30.08R
#CULVER 8W      N/A         28  21  75  CALM    30.06R
#LAKE BILLY CHINN/A         32  N/A N/A E2      30.18R
#POWELL BUTTE   N/A         29  17  60  SW1     29.98S
#WARM SPRINGS   N/A         34  25  69  CALM    30.06R

$$


ORZ509-230610-
EAST SLOPES OF OREGON CASCADES

CITY            SKY/WX      TMP DP  RH  WIND    PRES   REMARKS
SISTERS AWOS    N/A         28  21  75  CALM    30.01R
#BLUE BOX PASS  N/A         24  N/A N/A NW3     N/A
#CAMP SHERMAN   N/A         27  22  81  CALM    30.23F
#LA PINE 4NW    N/A         23  19  84  CALM    30.20R
#LAVA BUTTE DOT N/A         21  18  88  CALM    N/A
#SISTERS ODOT   N/A         28  N/A N/A CALM    N/A
#SISTERS 3N     N/A         26  16  65  CALM    30.02S
#SUNRIVER       N/A         24  21  88  CALM    30.17R
#TUMALO 3W      N/A         27  19  71  N5      30.03S
#WANOGA BUTTE D N/A         17  14  88  CALM    N/A

$$

ORZ044-230610-
LOWER COLUMBIA BASIN...OREGON

CITY            SKY/WX      TMP DP  RH  WIND    PRES   REMARKS
HERMISTON       PTCLDY      32  30  92  S6      30.09R
#BOARDMAN SCHOOLN/A         34  29  82  CALM    30.11R
#BOARDMAN 8SW   N/A         34  30  85  W3      30.11R
#ECHO 8SW       N/A         34  31  89  SW1     30.10S
#I-84 EX 198 DOTN/A         35  28  75  N3      N/A
#IONE SCHOOL    N/A         36  21  54  CALM    30.13S
#UMATILLA       N/A         36  29  75  CALM    30.05R
$$

ORZ507-230610-
NORTHERN FOOTHILLS OF THE BLUES

CITY            SKY/WX      TMP DP  RH  WIND    PRES   REMARKS
PENDLETON AIRPT MOCLDY      34  30  85  E3      30.06S
#ADAMS 3WNW     N/A         32  29  89  CALM    30.10S
#ATHENA         N/A         33  29  85  CALM    30.14R
#CAYUSE         N/A         34  30  85  CALM    30.11R
#HELIX SCHOOL   N/A         31  29  92  CALM    30.11S
#HELIX 3N       N/A         34  30  85  CALM    30.02S
#HOLDMAN 5SE    N/A         30  27  88  CALM    30.06S
#HOLDMAN 6E     N/A         32  29  89  CALM    29.92R
#M-F FERNDALE   N/A         34  28  78  CALM    30.06S
#M-F GROVE ELEM N/A         35  29  78  CALM    30.05S
#M-FREEWATER 5SEN/A         33  30  89  CALM    30.06S
#PENDLETON DNTN N/A         33  24  69  CALM    30.07S
#PDT AQUATIC CTRN/A         33  27  78  CALM    30.07S
#PDT SUNRIDGE   N/A         31  28  88  CALM    30.09S
#PENDLETON 7NW  N/A         30  26  85  CALM    32.03S
#PILOT ROCK 1S  N/A         30  20  66  CALM    30.06S
#PILOT ROCK     N/A         32  26  78  S3      30.07S
#TUTUILLA       N/A         32  28  85  CALM    30.10R
#UMAPINE 2E     N/A         34  31  89  CALM    30.06S
#WESTON SCHOOL  N/A         33  28  82  CALM    29.97R

$$

ORZ508-230610-
SOUTHERN FOOTHILLS OF THE BLUES

CITY            SKY/WX      TMP DP  RH  WIND    PRES   REMARKS
LEXINGTON       MOCLDY      32  27  82  SE6     30.10S
#AJAX           N/A         33  18  53  SW6     30.20R
#CONDON SCHOOL  N/A         30  24  78  CALM    29.98S
#CONDON 5W      N/A         27  20  74  NW8     29.99R
#HEPPNER EOC    N/A         31  26  81  E1      30.06R
#HEPPNER 4NE    N/A         29  24  81  CALM    30.13R
#LEXINGTON 2SE  N/A         30  25  81  CALM    30.03F
#MIKKALO        N/A         35  26  69  W5      30.18S
#OLEX 4N        N/A         35  29  78  W8      30.07R
#RUGGS 5NE      N/A         30  23  75  W3      30.17S
#RUGGS 2SW      N/A         29  24  81  W5      30.15R

$$

ORZ502-503-230610-
BLUE MOUNTAINS

CITY            SKY/WX      TMP DP  RH  WIND    PRES   REMARKS
MEACHAM         CLOUDY      26  22  85  CALM    29.98R
#BATTLE MTN DOT N/A         25  22  88  N1      N/A
#GREENHORN 9SW  N/A         28  24  85  CALM    29.96F
#HEPPNER 15SE   N/A         24  21  88  CALM    30.25S
#LADD CYN SMT   N/A         29  22  75  NW12    N/A    WCI 19
#LADD CREEK ODOTN/A         32  22  66  NE2     N/A
#LONG CREEK HS  N/A         28  27  96  CALM    N/A
#N POWDER DOT   N/A         31  23  72  N14     N/A    WCI 21
#PIKES PEAK     N/A         27  25  92  CALM    27.99S
#TOLLGATE       N/A         21  20  96  N1      29.80S
#TROY SCHOOL    N/A         34  32  92  CALM    29.95R
#UKIAH          N/A         28  25  88  CALM    30.02S
#WESTON 4E      N/A         29  27  92  CALM    30.10S
$$

ORZ505-230610-
JOHN DAY BASIN

CITY            SKY/WX      TMP DP  RH  WIND    PRES   REMARKS
JOHN DAY        MOCLDY      30  22  72  CALM    29.98S
#ANTELOPE 9ESE  N/A         35  26  69  CALM    N/A
#DAYVILLE SCHOOLN/A         31  21  66  CALM    30.00R
#MITCHELL       N/A         32  25  75  CALM    30.19S
#MITCHELL 8NW   N/A         29  21  72  CALM    29.96R
#MONUMENT HS    N/A         33  24  69  CALM    30.00R
#MT. VERNON 5SE N/A         28  20  71  S1      29.91S
#SPRAY SCHOOL   N/A         28  N/A N/A CALM    N/A
#WINLOCK        N/A         27  21  78  CALM    29.99R
$$

ORZ506-230610-
OCHOCO AND JOHN DAY HIGHLANDS

CITY            SKY/WX      TMP DP  RH  WIND    PRES   REMARKS
#HORSE RIDGE DO N/A         27  21  78  NW8     N/A
#PAULINA SCHOOL N/A         30  20  66  NW3     N/A
#PINE MTN OBS   N/A         19  17  92  CALM    N/A
#PRAIRIE CITY   N/A         28  20  71  CALM    30.14F
#SENECA         N/A         24  N/A N/A N5      N/A
#SENECA 9NW     N/A         24  18  77  CALM    30.05S
$$

ORZ049-230610-
GRANDE RONDE VALLEY

CITY            SKY/WX      TMP DP  RH  WIND    PRES   REMARKS
LA GRANDE       CLOUDY      34  25  69  N3      30.00R
#COVE           N/A         31  29  92  N1      30.02S
#COVE SCHOOL    N/A         31  27  85  CALM    30.01R
#COVE 6NW       N/A         33  26  75  N8      30.09R
#ELGIN 3N       N/A         30  21  69  CALM    29.98R
#ELGIN 1E       N/A         33  26  75  CALM    N/A
#IMBLER SCHOOL  N/A         31  24  75  N5      29.97R
#ISLAND CITY 4N N/A         33  32  96  CALM    30.22R
#UNION 1S       N/A         32  27  82  N5      30.08R
$$

ORZ050-230610-
WALLOWA COUNTY

CITY            SKY/WX      TMP DP  RH  WIND    PRES   REMARKS
JOSEPH AIRPORT  LGT SNOW    27  23  85  NW6     29.95S
#IMNAHA SCHOOL  N/A         37  32  82  CALM    30.00R
#IMNAHA 10S     N/A         32  29  89  E5      29.96S
#JOSEPH 3N      N/A         26  21  81  NW9     29.98R
#JOSEPH 3W      N/A         25  19  78  CALM    29.78S
#LOSTINE        N/A         28  25  88  CALM    29.88S
#LOSTINE 3SE    N/A         28  25  88  SW2     30.02R
#MT HOWARD 8000 N/A         12  10  91  N3      29.72R
#PROMISE 1S     N/A         26  22  85  CALM    30.20R
#WALLOWA SCHOOL N/A         29  27  92  CALM    29.97R



$$



USA.gov is the U.S. government's official web portal to all federal, state and local government web resources and services.